Погода в Мурмашах

Россия / Мурманская область     68°48′54″N   32°48′44″E
темп.,
°C
ветер,
м/с
пор.,
м/с
влажн.,
%
обл.,
%
осадки,
мм/ч
давл.,
гПа
погр.,
м
28 сентября, вт
вт2800:00+7ююз229552 0.0 102823
03:00+7ююз229589 0.0 102822
06:00+7ююз229549 0.0 102935
09:00+9ююз268590 0.0 1028162
12:00+12юз4125676 0.0 1028535
15:00+13юз4125694 0.0 1028630
18:00+11юз4126898 0.0 1028502
21:00+10юз41474100 0.0 1028512
29 сентября, ср
ср2900:00+9зюз4137723 0.0 1029469
03:00+7зюз413795 0.0 1029425
06:00+6зюз3138363 0.0 1029387
09:00+7зюз3128098 0.0 1030451
12:00+10зюз4106946 0.0 1030542
15:00+11зюз49665 0.0 1030626
18:00+8зюз24825 0.0 103082
21:00+5юз25945 0.0 1030110
30 сентября, чт
чт3000:00+5юз24965 0.0 103096
03:00+4юз229636 0.0 103025
06:00+3юз21978 0.0 103017
09:00+5ююз13925 0.0 1030100
12:00+9юз36738 0.0 1030457
15:00+10юз3770100 0.0 1029573
18:00+6юз228836 0.0 102914
21:00+5ююз22945 0.0 102819
1 октября, пт
пт100:00+4ююз229513 0.0 102821
03:00+4ю239577 0.0 102749
06:00+6ю2685100 0.0 1026128
09:00+7ю2778100 0.0 1025230
12:00+10юз36595 0.0 10231153
15:00+10ююз36585 0.0 10221048
18:00+6ю387676 0.0 1021234
21:00+5ююз3108270 0.0 1021308
2 октября, сб
сб200:00+7ююз4117891 0.0 1020647
03:00+7ююз4107963 0.0 1019525
06:00+7ююз41176100 0.0 1018529
09:00+8ююз4118126 0.0 1018799
12:00+10ююз5117149 0.0 1017963
15:00+10ююз51166100 0.0 10171000
18:00+9ююз51279100 0.0 1017818
21:00+8ююз51384100 0.0 1016696